Dubuque, IA

4:56 PM CST on November 11, 2019 (GMT -0600)
Dubuque Regional

Weather History for KDBQ - September, 2019

Change the Weather History Date:

Sunday, September 1, 2019

  Actual Average Record
Temperature  
Mean Temperature 66 °F 67 °F  
Max Temperature 75 °F 77 °F 97 °F (1913)
Min Temperature 56 °F 58 °F 42 °F (1967)
Degree Days  
Heating Degree Days 0 2  
Month to date heating degree days 0 2  
Since 1 July heating degree days 9 29  
Cooling Degree Days 1 4  
Month to date cooling degree days 1 4  
Year to date cooling degree days 574 580  
Growing Degree Days 16 (Base 50)    
Moisture  
Dew Point 61 °F    
Average Humidity 87    
Maximum Humidity 100    
Minimum Humidity 68    
Precipitation  
Precipitation 0.00 in 0.13 in 2.15 in (2018)
Month to date precipitation 0.00 0.13  
Year to date precipitation 31.13 26.11  
Snow  
Snow 0.00 in 0.00 in - ()
Month to date snowfall 0.0 0.0  
Since 1 July snowfall 0.0 0.0  
Since 1 September snowfall 0.0 0.0  
Snow Depth 0.00 in    
Sea Level Pressure  
Sea Level Pressure 30.14 in    
Wind  
Wind Speed 4 mph ()    
Max Wind Speed 8 mph    
Max Gust Speed 11 mph    
Visibility 8.4 miles    
Events      
T = Trace of Precipitation, MM = Missing Value Source: Averaged Metar Reports

Daily Weather History Graph

Daily Weather History Graph

Search for Another Location

Airport or City:

Astronomy

Sep. 01, 2019 Rise Set
Actual Time 6:27 AM CDT 7:37 PM CDT
Civil Twilight 5:58 AM CDT 8:06 PM CDT
Nautical Twilight 5:24 AM CDT 8:40 PM CDT
Astronomical Twilight 4:47 AM CDT 9:16 PM CDT
Moon 9:00 AM CDT (9/1) 9:21 PM CDT (9/1)
Length of Visible Light 14h 07m
Length of Day
13h 09m
Waxing Crescent, 8% of the Moon is Illuminated
Sep 1
Waxing Crescent
Sep 5
First Quarter
Sep 13
Full
Sep 21
Last Quarter
Sep 28
New

Hourly Weather History & Observations

Time (CDT) Temp. Dew Point Humidity Pressure Visibility Wind Dir Wind Speed Gust Speed Precip Events Conditions
12:53 AM 60.1 °F 59.0 °F 96% 30.21 in 10.0 mi NNE 4.6 mph - N/A   Overcast
1:53 AM 60.1 °F 59.0 °F 96% 30.20 in 10.0 mi NE 5.8 mph - N/A   Overcast
2:53 AM 60.1 °F 57.9 °F 93% 30.18 in 10.0 mi ENE 3.5 mph - N/A   Overcast
3:53 AM 59.0 °F 57.9 °F 96% 30.17 in 9.0 mi NNE 4.6 mph - N/A   Overcast
4:53 AM 59.0 °F 57.9 °F 96% 30.17 in 8.0 mi NNE 5.8 mph - N/A   Overcast
5:40 AM 57.9 °F 57.9 °F 100% 30.16 in 6.0 mi NE 4.6 mph - N/A   Overcast
5:53 AM 57.9 °F 57.9 °F 100% 30.17 in 6.0 mi NNE 5.8 mph - N/A   Overcast
6:08 AM 57.9 °F 57.9 °F 100% 30.16 in 7.0 mi NE 5.8 mph - N/A   Mostly Cloudy
6:21 AM 57.0 °F 57.0 °F 100% 30.16 in 6.0 mi NNE 4.6 mph - N/A   Mostly Cloudy
6:53 AM 57.0 °F 55.9 °F 96% 30.17 in 5.0 mi NNE 4.6 mph - N/A   Mostly Cloudy
7:53 AM 60.1 °F 59.0 °F 96% 30.16 in 5.0 mi NNE 4.6 mph - N/A   Overcast
8:42 AM 61.0 °F 61.0 °F 100% 30.18 in 1.8 mi SE 3.5 mph - N/A   Overcast
8:53 AM 61.0 °F 61.0 °F 100% 30.18 in 1.2 mi ESE 3.5 mph - N/A   Overcast
8:56 AM 61.0 °F 61.0 °F 100% 30.18 in 3.0 mi SE 3.5 mph - N/A   Overcast
9:53 AM 62.1 °F 61.0 °F 96% 30.18 in 8.0 mi South 5.8 mph - N/A   Overcast
10:53 AM 64.9 °F 62.1 °F 90% 30.17 in 10.0 mi Variable 3.5 mph - N/A   Overcast
11:35 AM 66.9 °F 62.1 °F 84% 30.17 in 10.0 mi Calm Calm - N/A   Overcast
11:53 AM 68.0 °F 62.1 °F 81% 30.16 in 10.0 mi Calm Calm - N/A   Overcast
12:19 PM 70.0 °F 63.0 °F 78% 30.15 in 10.0 mi NNE 4.6 mph - N/A   Scattered Clouds
12:53 PM 71.1 °F 61.0 °F 70% 30.14 in 10.0 mi Variable 4.6 mph - N/A   Scattered Clouds
1:04 PM 71.1 °F 62.1 °F 73% 30.13 in 10.0 mi ENE 6.9 mph - N/A   Mostly Cloudy
1:49 PM 69.8 °F 60.8 °F 73% 30.12 in 10.0 mi Calm Calm - N/A   Scattered Clouds
1:53 PM 71.1 °F 61.0 °F 70% 30.12 in 10.0 mi Calm Calm - N/A   Scattered Clouds
2:53 PM 73.0 °F 62.1 °F 68% 30.10 in 10.0 mi South 4.6 mph - N/A   Scattered Clouds
3:53 PM 73.0 °F 62.1 °F 68% 30.09 in 10.0 mi SSW 4.6 mph - N/A   Mostly Cloudy
4:08 PM 73.9 °F 63.0 °F 68% 30.09 in 10.0 mi South 5.8 mph - N/A   Mostly Cloudy
4:53 PM 73.0 °F 62.1 °F 68% 30.08 in 10.0 mi WSW 5.8 mph - N/A   Mostly Cloudy
5:53 PM 72.0 °F 63.0 °F 73% 30.07 in 10.0 mi South 4.6 mph - N/A   Mostly Cloudy
6:53 PM 71.1 °F 64.0 °F 78% 30.07 in 10.0 mi SSE 4.6 mph - N/A   Overcast
7:53 PM 68.0 °F 64.0 °F 87% 30.07 in 10.0 mi SW 3.5 mph - N/A   Overcast
8:53 PM 64.9 °F 63.0 °F 93% 30.08 in 10.0 mi South 3.5 mph - N/A   Partly Cloudy
9:53 PM 64.0 °F 62.1 °F 93% 30.09 in 10.0 mi Calm Calm - N/A   Mostly Cloudy
10:53 PM 64.9 °F 64.0 °F 97% 30.09 in 10.0 mi SW 4.6 mph - N/A   Overcast
11:53 PM 64.9 °F 63.0 °F 93% 30.09 in 10.0 mi Calm Calm - N/A   Mostly Cloudy